STARLINK-33818, 63502

Orbit data source: Space-Track

STARLINK-33818, 63502 is a payload satellite owned by SpaceX/Seattle (US) in LEO that was launched on Mon, 07 Apr 2025 UTC via an FALCON 9 launch vehicle from the Air Force Western Test Range (AFWTR). Payload-class satellites include a variety of spacecraft equipped with specific instruments for various scientific and technological missions. These include communications satellites like Starlink; space stations such as the ISS; scientific satellites like the Hubble; Earth observation satellites from companies like Planet Labs, Umbra, and HawkEye 360; GPS; miniature CubeSats for education and research; and military/defense satellites.

Loading next visibility...
Identifier
63502, 2025-071K
Orbit
LEO
Country
Flag of USUS
Related business
Manufacturer
SpaceX/Seattle
Mission
Operational Commercial Communications
Bus & Motor
STARLINK V2MO, Unknown motor
Mass
575 kg wet, ~530 kg dry
Launch date (UTC)
2025-04-07 (1 year ago)
Launch vehicle
FALCON 9
Launch site
Air Force Western Test Range (AFWTR)
Object type
Payload
Rocket body
Debris
Shape & HBR
Box + 1 Pan, 17.7 m
Radar Cross Section
41.120 m², Large (>1 m²)

Expand to show TLE details & history
Last TLE update: 23 hours ago

TLE from 23 hours ago
0 STARLINK-33818
1 63502U 25071K   26262.43522633  .00025067  00000-0  74958-3 0  9993
2 63502  53.1590 318.5484 0001524  85.2033 274.9144 15.34441203 82454
Epoch: 2026-09-19T10:26Z
TLE epoch observation values (Epoch: 2026-09-19T10:26:43.554Z)
Latitude
-0.00001°
Longitude
163.52311°
Altitude
463.393 km
Speed
7.636 km/s
True Right ascension
21h 14m 11s
True Declination
0° 00' 00"
Sunlit
Object was in full shadow at epoch
Visualization orbit readout
Latitude
Unknown
Longitude
Unknown
Altitude
Unknown
Speed
Unknown
Apparent Right ascension
Unknown
Apparent Declination
Unknown
Sunlit
N/A
Visualization observer readout
Local Sidereal Time
02:39:34
Azimuth
Unknown
Elevation
Unknown
Doppler factor
Unknown
Orbital elements
Apogee altitude
463.88 km
Perigee altitude
461.795 km
Semi-major axis
6,840.975 km
Eccentricity
0.00015
Inclination
53.159°
RAAN
318.5484°
Arg. of periapsis
85.2033°
True anomaly
274.897°
Mean anomaly
274.9144°
Eccentric anomaly
274.9057°
Mean motion
3.83589 °/min
Orbital period
93.85 mins
BSTAR
0.00074958
Loading maneuver chart data...
Computing Atmospheric mass density...
Loading historical data...
Loading historical data...
Loading historical data...
Loading historical data...
Loading historical data...
Loading historical data...
Loading historical data...

Documentation

Showing up to 5 results
|